Time,TemperatureF,DewpointF,PressureIn,WindDirection,WindDirectionDegrees,WindSpeedMPH,WindSpeedGustMPH,Humidity,HourlyPrecipIn,Conditions,Clouds,dailyrainin,SoftwareType,DateUTC
2013-02-22 00:00:00,41.7,37.2,30.00,ESE,113,7.0,18.0,84,0.00,,,0.00,Wunderground v.1.13,2013-02-22 00:00:00,
2013-02-22 00:10:00,41.7,37.2,30.00,ESE,113,7.0,18.0,84,0.00,,,0.00,Wunderground v.1.13,2013-02-22 00:10:00,
2013-02-22 00:20:00,41.7,37.2,30.00,ESE,113,7.0,18.0,84,0.00,,,0.00,Wunderground v.1.13,2013-02-22 00:20:00,
2013-02-22 00:30:00,41.8,37.0,30.00,ESE,113,6.0,20.0,83,0.00,,,0.00,Wunderground v.1.13,2013-02-22 00:30:00,
2013-02-22 00:40:00,41.8,37.3,30.00,SE,135,8.0,21.0,84,0.00,,,0.00,Wunderground v.1.13,2013-02-22 00:40:00,
2013-02-22 00:50:00,41.8,37.3,30.00,SE,135,8.0,21.0,84,0.00,,,0.00,Wunderground v.1.13,2013-02-22 00:50:00,
2013-02-22 01:00:00,41.7,36.6,30.00,SSE,158,7.0,25.0,82,0.00,,,0.00,Wunderground v.1.13,2013-02-22 01:00:00,
2013-02-22 01:10:00,41.9,36.8,30.00,SE,135,7.0,21.0,82,0.00,,,0.00,Wunderground v.1.13,2013-02-22 01:10:00,
2013-02-22 01:20:00,41.9,36.8,30.00,SE,135,7.0,21.0,82,0.00,,,0.00,Wunderground v.1.13,2013-02-22 01:20:00,
2013-02-22 01:30:00,41.9,36.8,30.00,SE,135,7.0,19.0,82,0.00,,,0.00,Wunderground v.1.13,2013-02-22 01:30:00,
2013-02-22 01:40:00,41.9,36.5,30.00,SE,135,7.0,22.0,81,0.00,,,0.00,Wunderground v.1.13,2013-02-22 01:40:00,
2013-02-22 01:50:00,41.9,36.5,30.00,SE,135,7.0,22.0,81,0.00,,,0.00,Wunderground v.1.13,2013-02-22 01:50:00,
2013-02-22 02:00:00,41.9,36.8,30.00,ESE,113,7.0,19.0,82,0.00,,,0.00,Wunderground v.1.13,2013-02-22 02:00:00,
2013-02-22 02:10:00,41.8,36.4,30.00,SSE,158,7.0,20.0,81,0.00,,,0.00,Wunderground v.1.13,2013-02-22 02:10:00,
2013-02-22 02:20:00,41.8,36.4,30.00,SSE,158,7.0,20.0,81,0.00,,,0.00,Wunderground v.1.13,2013-02-22 02:20:00,
2013-02-22 02:30:00,41.7,36.3,29.99,ESE,113,7.0,19.0,81,0.00,,,0.00,Wunderground v.1.13,2013-02-22 02:30:00,
2013-02-22 02:40:00,41.7,36.0,29.99,SSE,158,7.0,18.0,80,0.00,,,0.00,Wunderground v.1.13,2013-02-22 02:40:00,
2013-02-22 02:50:00,41.7,36.0,29.99,SSE,158,7.0,18.0,80,0.00,,,0.00,Wunderground v.1.13,2013-02-22 02:50:00,
2013-02-22 03:00:00,41.6,35.9,29.99,ESE,113,7.0,17.0,80,0.00,,,0.00,Wunderground v.1.13,2013-02-22 03:00:00,
2013-02-22 03:10:00,41.5,36.1,29.99,SE,135,5.0,17.0,81,0.00,,,0.00,Wunderground v.1.13,2013-02-22 03:10:00,
2013-02-22 03:20:00,41.5,36.1,29.99,SE,135,5.0,17.0,81,0.00,,,0.00,Wunderground v.1.13,2013-02-22 03:20:00,
2013-02-22 03:30:00,41.7,36.0,29.99,SE,135,7.0,25.0,80,0.00,,,0.00,Wunderground v.1.13,2013-02-22 03:30:00,
2013-02-22 03:40:00,41.5,36.1,29.99,SE,135,6.0,19.0,81,0.00,,,0.00,Wunderground v.1.13,2013-02-22 03:40:00,
2013-02-22 03:50:00,41.5,36.1,29.99,SE,135,6.0,19.0,81,0.00,,,0.00,Wunderground v.1.13,2013-02-22 03:50:00,
2013-02-22 04:00:00,41.5,36.1,29.99,ESE,113,5.0,16.0,81,0.00,,,0.00,Wunderground v.1.13,2013-02-22 04:00:00,
2013-02-22 04:10:00,41.5,36.7,30.00,ESE,113,5.0,14.0,83,0.00,,,0.00,Wunderground v.1.13,2013-02-22 04:10:00,
2013-02-22 04:20:00,41.5,36.7,30.00,ESE,113,5.0,14.0,83,0.00,,,0.00,Wunderground v.1.13,2013-02-22 04:20:00,
2013-02-22 04:30:00,41.5,36.7,30.00,SE,135,6.0,16.0,83,0.00,,,0.00,Wunderground v.1.13,2013-02-22 04:30:00,
2013-02-22 04:40:00,41.3,36.2,30.00,ESE,113,6.0,14.0,82,0.00,,,0.00,Wunderground v.1.13,2013-02-22 04:40:00,
2013-02-22 04:50:00,41.3,36.2,30.00,ESE,113,6.0,14.0,82,0.00,,,0.00,Wunderground v.1.13,2013-02-22 04:50:00,
2013-02-22 05:00:00,41.1,36.0,30.00,East,90,6.0,16.0,82,0.00,,,0.00,Wunderground v.1.13,2013-02-22 05:00:00,
2013-02-22 05:20:00,41.0,36.2,30.01,East,90,5.0,19.0,83,0.00,,,0.00,Wunderground v.1.13,2013-02-22 05:20:00,
2013-02-22 05:30:00,40.9,35.8,30.01,ESE,113,6.0,17.0,82,0.00,,,0.00,Wunderground v.1.13,2013-02-22 05:30:00,
2013-02-22 05:40:00,40.8,36.0,30.01,ESE,113,6.0,16.0,83,0.00,,,0.00,Wunderground v.1.13,2013-02-22 05:40:00,
2013-02-22 05:50:00,40.8,36.0,30.01,ESE,113,6.0,16.0,83,0.00,,,0.00,Wunderground v.1.13,2013-02-22 05:50:00,
2013-02-22 06:00:00,41.0,36.2,30.01,ESE,113,6.0,18.0,83,0.00,,,0.00,Wunderground v.1.13,2013-02-22 06:00:00,
2013-02-22 06:10:00,41.1,36.0,30.01,ESE,113,6.0,17.0,82,0.00,,,0.00,Wunderground v.1.13,2013-02-22 06:10:00,
2013-02-22 06:20:00,41.1,36.0,30.01,ESE,113,6.0,17.0,82,0.00,,,0.00,Wunderground v.1.13,2013-02-22 06:20:00,
2013-02-22 06:30:00,41.2,36.1,30.02,ESE,113,6.0,20.0,82,0.00,,,0.00,Wunderground v.1.13,2013-02-22 06:30:00,
2013-02-22 06:40:00,41.0,35.9,30.02,ESE,113,6.0,17.0,82,0.00,,,0.00,Wunderground v.1.13,2013-02-22 06:40:00,
2013-02-22 06:50:00,41.0,35.9,30.02,ESE,113,6.0,17.0,82,0.00,,,0.00,Wunderground v.1.13,2013-02-22 06:50:00,
2013-02-22 07:00:00,40.9,35.8,30.02,ESE,113,6.0,19.0,82,0.00,,,0.00,Wunderground v.1.13,2013-02-22 07:00:00,
2013-02-22 07:10:00,40.9,35.5,30.03,SE,135,6.0,16.0,81,0.00,,,0.00,Wunderground v.1.13,2013-02-22 07:10:00,
2013-02-22 07:20:00,40.9,35.5,30.03,SE,135,6.0,16.0,81,0.00,,,0.00,Wunderground v.1.13,2013-02-22 07:20:00,
2013-02-22 07:30:00,40.7,35.6,30.03,ESE,113,5.0,18.0,82,0.00,,,0.00,Wunderground v.1.13,2013-02-22 07:30:00,
2013-02-22 07:40:00,40.7,35.6,30.04,SE,135,5.0,16.0,82,0.00,,,0.00,Wunderground v.1.13,2013-02-22 07:40:00,
2013-02-22 07:50:00,40.7,35.6,30.04,SE,135,5.0,16.0,82,0.00,,,0.00,Wunderground v.1.13,2013-02-22 07:50:00,
2013-02-22 08:00:00,40.7,35.6,30.04,ESE,113,6.0,18.0,82,0.00,,,0.00,Wunderground v.1.13,2013-02-22 08:00:00,
2013-02-22 08:10:00,40.5,35.4,30.05,ESE,113,5.0,16.0,82,0.00,,,0.00,Wunderground v.1.13,2013-02-22 08:10:00,
2013-02-22 08:20:00,40.5,35.4,30.05,ESE,113,5.0,16.0,82,0.00,,,0.00,Wunderground v.1.13,2013-02-22 08:20:00,
2013-02-22 08:30:00,40.5,35.1,30.05,East,90,5.0,14.0,81,0.00,,,0.00,Wunderground v.1.13,2013-02-22 08:30:00,
2013-02-22 08:40:00,40.3,34.9,30.06,East,90,7.0,22.0,81,0.00,,,0.00,Wunderground v.1.13,2013-02-22 08:40:00,
2013-02-22 08:50:00,40.3,34.9,30.06,East,90,7.0,22.0,81,0.00,,,0.00,Wunderground v.1.13,2013-02-22 08:50:00,
2013-02-22 09:00:00,40.3,34.9,30.06,ESE,113,6.0,14.0,81,0.00,,,0.00,Wunderground v.1.13,2013-02-22 09:00:00,
2013-02-22 09:10:00,40.3,35.2,30.06,East,90,5.0,14.0,82,0.00,,,0.00,Wunderground v.1.13,2013-02-22 09:10:00,
2013-02-22 09:20:00,40.3,35.2,30.06,East,90,5.0,14.0,82,0.00,,,0.00,Wunderground v.1.13,2013-02-22 09:20:00,
2013-02-22 09:30:00,40.3,35.2,30.06,ESE,113,5.0,19.0,82,0.00,,,0.00,Wunderground v.1.13,2013-02-22 09:30:00,
2013-02-22 09:40:00,40.2,35.1,30.06,ESE,113,7.0,19.0,82,0.00,,,0.00,Wunderground v.1.13,2013-02-22 09:40:00,
2013-02-22 09:50:00,40.2,35.1,30.06,ESE,113,7.0,19.0,82,0.00,,,0.00,Wunderground v.1.13,2013-02-22 09:50:00,
2013-02-22 10:00:00,40.1,35.0,30.07,ESE,113,5.0,13.0,82,0.00,,,0.00,Wunderground v.1.13,2013-02-22 10:00:00,
2013-02-22 10:10:00,40.2,34.8,30.07,ESE,113,5.0,17.0,81,0.00,,,0.00,Wunderground v.1.13,2013-02-22 10:10:00,
2013-02-22 10:20:00,40.2,34.8,30.07,ESE,113,5.0,17.0,81,0.00,,,0.00,Wunderground v.1.13,2013-02-22 10:20:00,
2013-02-22 10:30:00,40.0,34.3,30.07,NE,49,6.0,6.0,80,0.00,,,0.00,Wunderground v.1.13,2013-02-22 10:30:00,
2013-02-22 10:40:00,40.2,34.5,30.07,ESE,112,6.0,6.0,80,0.00,,,0.00,Wunderground v.1.13,2013-02-22 10:40:00,
2013-02-22 10:50:00,40.2,34.5,30.07,East,92,6.0,6.0,80,0.00,,,0.00,Wunderground v.1.13,2013-02-22 10:50:00,
2013-02-22 11:00:00,40.2,34.8,30.08,East,96,7.0,12.0,81,0.00,,,0.00,Wunderground v.1.13,2013-02-22 11:00:00,
2013-02-22 11:10:00,40.2,34.8,30.08,East,90,6.0,16.0,81,0.00,,,0.00,Wunderground v.1.13,2013-02-22 11:10:00,
2013-02-22 11:20:00,40.2,34.8,30.08,East,90,6.0,16.0,81,0.00,,,0.00,Wunderground v.1.13,2013-02-22 11:20:00,
2013-02-22 11:30:00,40.0,34.3,30.08,East,90,7.0,19.0,80,0.00,,,0.00,Wunderground v.1.13,2013-02-22 11:30:00,
2013-02-22 11:40:00,40.0,34.3,30.09,East,90,7.0,17.0,80,0.00,,,0.00,Wunderground v.1.13,2013-02-22 11:40:00,
2013-02-22 11:50:00,40.0,34.3,30.09,East,90,7.0,17.0,80,0.00,,,0.00,Wunderground v.1.13,2013-02-22 11:50:00,
2013-02-22 12:00:00,40.0,34.6,30.09,East,90,7.0,21.0,81,0.00,,,0.00,Wunderground v.1.13,2013-02-22 12:00:00,
2013-02-22 12:10:00,39.9,34.5,30.09,ESE,104,7.0,7.0,81,0.00,,,0.00,Wunderground v.1.13,2013-02-22 12:10:00,
2013-02-22 12:20:00,39.9,34.2,30.09,SE,124,6.0,6.0,80,0.00,,,0.00,Wunderground v.1.13,2013-02-22 12:20:00,
2013-02-22 12:30:00,39.9,33.9,30.09,ESE,103,6.0,10.0,79,0.00,,,0.00,Wunderground v.1.13,2013-02-22 12:30:00,
2013-02-22 12:40:00,39.9,33.9,30.09,ESE,121,6.0,7.0,79,0.00,,,0.00,Wunderground v.1.13,2013-02-22 12:40:00,
2013-02-22 12:50:00,39.9,33.6,30.09,SE,141,6.0,8.0,78,0.00,,,0.00,Wunderground v.1.13,2013-02-22 12:50:00,
2013-02-22 13:00:00,40.0,33.7,30.09,SE,133,7.0,7.0,78,0.00,,,0.00,Wunderground v.1.13,2013-02-22 13:00:00,
2013-02-22 13:10:00,40.5,33.2,30.09,ESE,106,4.0,6.0,75,0.00,,,0.00,Wunderground v.1.13,2013-02-22 13:10:00,
2013-02-22 13:20:00,40.6,34.0,30.09,ESE,110,5.0,5.0,77,0.00,,,0.00,Wunderground v.1.13,2013-02-22 13:20:00,
2013-02-22 13:30:00,40.6,34.0,30.09,East,96,4.0,4.0,77,0.00,,,0.00,Wunderground v.1.13,2013-02-22 13:30:00,
2013-02-22 13:40:00,40.5,34.5,30.09,SE,126,6.0,6.0,79,0.00,,,0.00,Wunderground v.1.13,2013-02-22 13:40:00,
2013-02-22 13:50:00,40.5,34.8,30.09,SE,126,5.0,5.0,80,0.00,,,0.00,Wunderground v.1.13,2013-02-22 13:50:00,
2013-02-22 14:00:00,40.3,34.6,30.09,South,184,6.0,6.0,80,0.00,,,0.00,Wunderground v.1.13,2013-02-22 14:00:00,
2013-02-22 14:10:00,40.3,35.2,30.09,SE,145,5.0,5.0,82,0.00,,,0.00,Wunderground v.1.13,2013-02-22 14:10:00,
2013-02-22 14:20:00,40.5,35.1,30.08,SE,130,4.0,4.0,81,0.00,,,0.00,Wunderground v.1.13,2013-02-22 14:20:00,
2013-02-22 14:30:00,40.6,35.5,30.08,ESE,107,3.0,5.0,82,0.00,,,0.00,Wunderground v.1.13,2013-02-22 14:30:00,
2013-02-22 14:40:00,40.5,35.4,30.08,East,99,5.0,6.0,82,0.00,,,0.00,Wunderground v.1.13,2013-02-22 14:40:00,
2013-02-22 14:50:00,40.3,34.9,30.09,SE,131,6.0,6.0,81,0.00,,,0.00,Wunderground v.1.13,2013-02-22 14:50:00,
2013-02-22 15:00:00,40.2,35.1,30.09,ESE,109,7.0,8.0,82,0.00,,,0.00,Wunderground v.1.13,2013-02-22 15:00:00,
2013-02-22 15:10:00,40.2,35.4,30.09,ENE,76,5.0,5.0,83,0.00,,,0.00,Wunderground v.1.13,2013-02-22 15:10:00,
2013-02-22 15:20:00,40.3,35.5,30.09,East,96,5.0,5.0,83,0.00,,,0.00,Wunderground v.1.13,2013-02-22 15:20:00,
2013-02-22 15:30:00,40.2,35.4,30.09,East,96,5.0,11.0,83,0.00,,,0.00,Wunderground v.1.13,2013-02-22 15:30:00,
2013-02-22 15:40:00,39.9,35.2,30.09,East,93,9.0,10.0,83,0.00,,,0.00,Wunderground v.1.13,2013-02-22 15:40:00,
2013-02-22 15:50:00,39.9,35.2,30.09,East,80,7.0,8.0,83,0.00,,,0.00,Wunderground v.1.13,2013-02-22 15:50:00,
2013-02-22 16:00:00,39.8,34.8,30.09,East,90,8.0,19.0,82,0.00,,,0.00,Wunderground v.1.13,2013-02-22 16:00:00,
2013-02-22 16:10:00,39.7,35.0,30.09,East,80,6.0,7.0,83,0.00,,,0.00,Wunderground v.1.13,2013-02-22 16:10:00,
2013-02-22 16:20:00,39.7,35.0,30.10,ESE,106,5.0,7.0,83,0.00,,,0.00,Wunderground v.1.13,2013-02-22 16:20:00,
2013-02-22 16:30:00,39.6,34.6,30.10,East,90,5.0,12.0,82,0.00,,,0.00,Wunderground v.1.13,2013-02-22 16:30:00,
2013-02-22 16:40:00,39.5,34.8,30.10,East,95,7.0,7.0,83,0.00,,,0.00,Wunderground v.1.13,2013-02-22 16:40:00,
2013-02-22 16:50:00,39.5,34.8,30.10,ENE,65,5.0,7.0,83,0.00,,,0.00,Wunderground v.1.13,2013-02-22 16:50:00,
2013-02-22 16:59:00,39.3,34.6,30.11,East,83,7.0,8.0,83,0.00,,,0.00,Wunderground v.1.13,2013-02-22 16:59:00,
2013-02-22 17:10:00,39.2,34.2,30.11,ESE,103,6.0,6.0,82,0.00,,,0.00,Wunderground v.1.13,2013-02-22 17:10:00,
2013-02-22 17:20:00,39.2,34.2,30.11,East,80,7.0,7.0,82,0.00,,,0.00,Wunderground v.1.13,2013-02-22 17:20:00,
2013-02-22 17:30:00,39.2,34.8,30.11,ESE,107,5.0,13.0,84,0.00,,,0.00,Wunderground v.1.13,2013-02-22 17:30:00,
2013-02-22 17:40:00,39.2,34.8,30.11,ENE,69,7.0,7.0,84,0.00,,,0.00,Wunderground v.1.13,2013-02-22 17:40:00,
2013-02-22 17:49:00,39.0,35.2,30.11,ENE,71,6.0,6.0,86,0.00,,,0.00,Wunderground v.1.13,2013-02-22 17:49:00,
2013-02-22 18:00:00,39.0,35.2,30.12,East,90,6.0,14.0,86,0.00,,,0.00,Wunderground v.1.13,2013-02-22 18:00:00,
2013-02-22 18:10:00,39.0,35.2,30.12,ENE,59,6.0,10.0,86,0.00,,,0.00,Wunderground v.1.13,2013-02-22 18:10:00,
2013-02-22 18:20:00,39.0,35.2,30.13,East,86,8.0,8.0,86,0.00,,,0.00,Wunderground v.1.13,2013-02-22 18:20:00,
2013-02-22 18:30:00,39.0,34.9,30.13,NE,54,7.0,11.0,85,0.00,,,0.00,Wunderground v.1.13,2013-02-22 18:30:00,
2013-02-22 18:40:00,38.9,34.8,30.14,ENE,68,7.0,13.0,85,0.00,,,0.00,Wunderground v.1.13,2013-02-22 18:40:00,
2013-02-22 18:50:00,38.9,34.8,30.14,ENE,68,7.0,13.0,85,0.00,,,0.00,Wunderground v.1.13,2013-02-22 18:50:00,
2013-02-22 19:00:00,38.9,34.5,30.14,ENE,68,7.0,13.0,84,0.00,,,0.00,Wunderground v.1.13,2013-02-22 19:00:00,
2013-02-22 19:10:00,38.7,34.3,30.14,ENE,68,7.0,12.0,84,0.00,,,0.00,Wunderground v.1.13,2013-02-22 19:10:00,
2013-02-22 19:20:00,38.7,34.3,30.14,ENE,68,7.0,12.0,84,0.00,,,0.00,Wunderground v.1.13,2013-02-22 19:20:00,
2013-02-22 19:30:00,38.6,34.5,30.15,ENE,68,7.0,13.0,85,0.00,,,0.00,Wunderground v.1.13,2013-02-22 19:30:00,
2013-02-22 19:40:00,38.6,33.9,30.15,East,90,7.0,13.0,83,0.00,,,0.00,Wunderground v.1.13,2013-02-22 19:40:00,
2013-02-22 19:50:00,38.6,33.9,30.15,East,90,7.0,13.0,83,0.00,,,0.00,Wunderground v.1.13,2013-02-22 19:50:00,
2013-02-22 20:00:00,38.4,33.4,30.15,East,90,5.0,12.0,82,0.00,,,0.00,Wunderground v.1.13,2013-02-22 20:00:00,
2013-02-22 20:10:00,38.5,33.8,30.15,East,90,5.0,11.0,83,0.00,,,0.00,Wunderground v.1.13,2013-02-22 20:10:00,
2013-02-22 20:20:00,38.5,33.8,30.15,East,90,5.0,11.0,83,0.00,,,0.00,Wunderground v.1.13,2013-02-22 20:20:00,
2013-02-22 20:30:00,38.6,33.9,30.16,ENE,68,7.0,13.0,83,0.00,,,0.00,Wunderground v.1.13,2013-02-22 20:30:00,
2013-02-22 20:40:00,38.4,33.7,30.16,East,90,5.0,11.0,83,0.00,,,0.00,Wunderground v.1.13,2013-02-22 20:40:00,
2013-02-22 20:50:00,38.4,33.7,30.16,East,90,5.0,11.0,83,0.00,,,0.00,Wunderground v.1.13,2013-02-22 20:50:00,
2013-02-22 21:00:00,38.5,33.8,30.16,ENE,68,4.0,8.0,83,0.00,,,0.00,Wunderground v.1.13,2013-02-22 21:00:00,
2013-02-22 21:10:00,38.2,34.1,30.16,NNE,23,4.0,10.0,85,0.00,,,0.00,Wunderground v.1.13,2013-02-22 21:10:00,
2013-02-22 21:20:00,38.2,34.1,30.16,NNE,23,4.0,10.0,85,0.00,,,0.00,Wunderground v.1.13,2013-02-22 21:20:00,
2013-02-22 21:30:00,37.5,33.7,30.17,NNE,23,3.0,8.0,86,0.00,,,0.00,Wunderground v.1.13,2013-02-22 21:30:00,
2013-02-22 21:40:00,37.2,33.4,30.17,NNE,23,3.0,8.0,86,0.00,,,0.00,Wunderground v.1.13,2013-02-22 21:40:00,
2013-02-22 21:50:00,37.2,33.4,30.17,NNE,23,3.0,8.0,86,0.00,,,0.00,Wunderground v.1.13,2013-02-22 21:50:00,
2013-02-22 22:00:00,37.0,33.2,30.17,NNE,23,3.0,8.0,86,0.00,,,0.00,Wunderground v.1.13,2013-02-22 22:00:00,
2013-02-22 22:10:00,36.9,33.4,30.17,NNE,23,4.0,10.0,87,0.00,,,0.00,Wunderground v.1.13,2013-02-22 22:10:00,
2013-02-22 22:20:00,36.9,33.4,30.17,NNE,23,4.0,10.0,87,0.00,,,0.00,Wunderground v.1.13,2013-02-22 22:20:00,
2013-02-22 22:30:00,36.9,33.4,30.17,NNE,23,3.0,10.0,87,0.00,,,0.00,Wunderground v.1.13,2013-02-22 22:30:00,
2013-02-22 22:40:00,36.9,33.4,30.17,NNE,23,3.0,7.0,87,0.00,,,0.00,Wunderground v.1.13,2013-02-22 22:40:00,
2013-02-22 22:50:00,36.9,33.4,30.17,NNE,23,3.0,7.0,87,0.00,,,0.00,Wunderground v.1.13,2013-02-22 22:50:00,
2013-02-22 23:00:00,36.9,33.4,30.18,NNE,23,4.0,10.0,87,0.00,,,0.00,Wunderground v.1.13,2013-02-22 23:00:00,
2013-02-22 23:10:00,36.9,33.4,30.18,NNE,23,4.0,8.0,87,0.00,,,0.00,Wunderground v.1.13,2013-02-22 23:10:00,
2013-02-22 23:20:00,36.9,33.4,30.18,NNE,23,4.0,8.0,87,0.00,,,0.00,Wunderground v.1.13,2013-02-22 23:20:00,
2013-02-22 23:30:00,37.0,33.5,30.18,NNE,23,4.0,8.0,87,0.00,,,0.00,Wunderground v.1.13,2013-02-22 23:30:00,
2013-02-22 23:40:00,37.0,33.5,30.18,NNE,23,4.0,8.0,87,0.00,,,0.00,Wunderground v.1.13,2013-02-22 23:40:00,
2013-02-22 23:50:00,37.0,33.5,30.18,NNE,23,4.0,8.0,87,0.00,,,0.00,Wunderground v.1.13,2013-02-22 23:50:00,